Time,TemperatureF,DewpointF,PressureIn,WindDirection,WindDirectionDegrees,WindSpeedMPH,WindSpeedGustMPH,Humidity,HourlyPrecipIn,Conditions,Clouds,dailyrainin,SoftwareType,DateUTC
2013-02-18 00:00:00,17.7,4.0,29.94,WNW,292,26.3,36.6,51,0.00,,,0.00,Rainwise IP-100,2013-02-18 05:00:00,
2013-02-18 00:05:00,17.8,4.0,29.95,WNW,292,29.6,35.4,51,0.00,,,0.00,Rainwise IP-100,2013-02-18 05:05:00,
2013-02-18 00:10:00,17.8,4.0,29.94,West,270,33.8,35.9,51,0.00,,,0.00,Rainwise IP-100,2013-02-18 05:10:00,
2013-02-18 00:15:00,17.8,4.0,29.94,West,270,37.8,39.4,50,0.00,,,0.00,Rainwise IP-100,2013-02-18 05:15:00,
2013-02-18 00:20:00,17.9,4.0,29.95,NW,315,18.2,39.2,50,0.00,,,0.00,Rainwise IP-100,2013-02-18 05:20:00,
2013-02-18 00:25:00,17.9,4.0,29.96,NW,315,25.6,36.4,51,0.00,,,0.00,Rainwise IP-100,2013-02-18 05:25:00,
2013-02-18 00:30:00,17.9,4.0,29.97,WSW,247,16.3,33.3,51,0.00,,,0.00,Rainwise IP-100,2013-02-18 05:30:00,
2013-02-18 00:36:00,17.8,4.0,29.97,WNW,292,15.6,27.3,51,0.00,,,0.00,Rainwise IP-100,2013-02-18 05:36:00,
2013-02-18 00:41:00,17.8,4.0,29.94,WNW,292,35.0,39.2,51,0.00,,,0.00,Rainwise IP-100,2013-02-18 05:41:00,
2013-02-18 00:46:00,17.9,4.0,29.96,WNW,292,22.2,39.2,51,0.00,,,0.00,Rainwise IP-100,2013-02-18 05:46:00,
2013-02-18 00:51:00,17.9,4.0,29.98,WNW,292,24.9,32.9,51,0.00,,,0.00,Rainwise IP-100,2013-02-18 05:51:00,
2013-02-18 00:56:00,18.0,4.0,29.97,WNW,292,23.8,30.5,51,0.00,,,0.00,Rainwise IP-100,2013-02-18 05:56:00,
2013-02-18 01:01:00,18.0,4.0,29.99,WNW,292,32.9,32.9,52,0.00,,,0.00,Rainwise IP-100,2013-02-18 06:01:00,
2013-02-18 01:06:00,18.0,4.0,29.98,WNW,292,23.1,34.5,52,0.00,,,0.00,Rainwise IP-100,2013-02-18 06:06:00,
2013-02-18 01:11:00,18.0,4.0,29.98,WNW,292,25.2,30.3,52,0.00,,,0.00,Rainwise IP-100,2013-02-18 06:11:00,
2013-02-18 01:17:00,17.9,4.0,29.98,WNW,292,20.1,34.3,52,0.00,,,0.00,Rainwise IP-100,2013-02-18 06:17:00,
2013-02-18 01:22:00,18.0,4.0,29.96,WNW,292,24.0,39.6,52,0.00,,,0.00,Rainwise IP-100,2013-02-18 06:22:00,
2013-02-18 01:27:00,18.1,4.0,29.99,WNW,292,24.7,37.5,52,0.00,,,0.00,Rainwise IP-100,2013-02-18 06:27:00,
2013-02-18 01:32:00,18.1,4.0,29.98,NW,315,27.5,36.6,52,0.00,,,0.00,Rainwise IP-100,2013-02-18 06:32:00,
2013-02-18 01:37:00,18.2,4.0,29.98,WNW,292,20.5,41.5,52,0.00,,,0.00,Rainwise IP-100,2013-02-18 06:37:00,
2013-02-18 01:42:00,18.2,4.0,29.98,NW,315,14.7,33.8,52,0.00,,,0.00,Rainwise IP-100,2013-02-18 06:42:00,
2013-02-18 01:47:00,18.2,4.0,29.99,West,270,20.1,32.2,52,0.00,,,0.00,Rainwise IP-100,2013-02-18 06:47:00,
2013-02-18 01:52:00,18.0,4.0,29.97,NW,315,30.8,31.2,52,0.00,,,0.00,Rainwise IP-100,2013-02-18 06:52:00,
2013-02-18 01:58:00,18.1,4.0,29.97,WNW,292,30.3,32.9,52,0.00,,,0.00,Rainwise IP-100,2013-02-18 06:58:00,
2013-02-18 02:03:00,18.1,4.0,29.99,WNW,292,20.3,40.6,52,0.00,,,0.00,Rainwise IP-100,2013-02-18 07:03:00,
2013-02-18 02:08:00,18.1,4.0,29.99,NW,315,18.4,27.3,52,0.00,,,0.00,Rainwise IP-100,2013-02-18 07:08:00,
2013-02-18 02:11:00,18.1,4.0,29.99,WNW,292,24.9,32.2,52,0.00,,,0.00,Rainwise IP-100,2013-02-18 07:11:00,
2013-02-18 02:12:00,18.2,4.0,29.99,NW,315,15.9,32.2,52,0.00,,,0.00,Rainwise IP-100,2013-02-18 07:12:00,
2013-02-18 02:17:00,18.2,4.0,29.98,NNW,337,31.2,39.4,52,0.00,,,0.00,Rainwise IP-100,2013-02-18 07:17:00,
2013-02-18 02:22:00,18.3,4.0,29.98,WNW,292,35.0,38.0,52,0.00,,,0.00,Rainwise IP-100,2013-02-18 07:22:00,
2013-02-18 02:27:00,18.2,4.0,29.98,WNW,292,23.3,36.1,53,0.00,,,0.00,Rainwise IP-100,2013-02-18 07:27:00,
2013-02-18 02:32:00,18.2,4.0,29.99,WNW,292,28.4,42.9,52,0.00,,,0.00,Rainwise IP-100,2013-02-18 07:32:00,
2013-02-18 02:37:00,18.2,4.0,29.98,WNW,292,22.2,38.5,52,0.00,,,0.00,Rainwise IP-100,2013-02-18 07:37:00,
2013-02-18 02:42:00,18.2,4.0,29.98,NW,315,24.9,40.1,52,0.00,,,0.00,Rainwise IP-100,2013-02-18 07:42:00,
2013-02-18 02:48:00,18.2,4.0,29.98,WNW,292,24.9,45.9,52,0.00,,,0.00,Rainwise IP-100,2013-02-18 07:48:00,
2013-02-18 02:53:00,18.2,4.0,29.99,WNW,292,22.4,34.3,53,0.00,,,0.00,Rainwise IP-100,2013-02-18 07:53:00,
2013-02-18 02:58:00,18.1,4.0,29.95,WNW,292,29.8,41.5,52,0.00,,,0.00,Rainwise IP-100,2013-02-18 07:58:00,
2013-02-18 03:03:00,18.2,4.0,29.98,WNW,292,27.3,37.5,52,0.00,,,0.00,Rainwise IP-100,2013-02-18 08:03:00,
2013-02-18 03:08:00,18.1,4.0,30.00,WNW,292,21.9,38.2,52,0.00,,,0.00,Rainwise IP-100,2013-02-18 08:08:00,
2013-02-18 03:13:00,18.1,4.0,29.99,NW,315,25.6,35.9,52,0.00,,,0.00,Rainwise IP-100,2013-02-18 08:13:00,
2013-02-18 03:18:00,18.1,4.0,30.00,NNW,337,15.2,38.2,52,0.00,,,0.00,Rainwise IP-100,2013-02-18 08:18:00,
2013-02-18 03:23:00,18.0,4.0,30.00,NW,315,19.6,30.3,53,0.00,,,0.00,Rainwise IP-100,2013-02-18 08:23:00,
2013-02-18 03:29:00,17.9,4.0,30.01,WNW,292,17.3,39.4,53,0.00,,,0.00,Rainwise IP-100,2013-02-18 08:29:00,
2013-02-18 03:34:00,17.9,4.0,29.99,NW,315,20.5,35.7,53,0.00,,,0.00,Rainwise IP-100,2013-02-18 08:34:00,
2013-02-18 03:36:00,17.9,4.0,30.00,WNW,292,25.4,35.7,53,0.00,,,0.00,Rainwise IP-100,2013-02-18 08:36:00,
2013-02-18 03:37:00,17.9,4.0,30.00,NW,315,31.2,35.7,54,0.00,,,0.00,Rainwise IP-100,2013-02-18 08:37:00,
2013-02-18 03:38:00,17.9,4.0,29.98,WNW,292,33.1,40.6,54,0.00,,,0.00,Rainwise IP-100,2013-02-18 08:38:00,
2013-02-18 03:40:00,17.9,4.0,30.01,WNW,292,30.3,40.6,53,0.00,,,0.00,Rainwise IP-100,2013-02-18 08:40:00,
2013-02-18 03:42:00,17.9,4.0,30.00,NNW,337,24.5,40.6,53,0.00,,,0.00,Rainwise IP-100,2013-02-18 08:42:00,
2013-02-18 03:43:00,17.9,4.0,30.01,WNW,292,25.9,37.8,53,0.00,,,0.00,Rainwise IP-100,2013-02-18 08:43:00,
2013-02-18 03:48:00,17.9,4.0,30.02,WNW,292,17.3,33.6,53,0.00,,,0.00,Rainwise IP-100,2013-02-18 08:48:00,
2013-02-18 03:49:00,17.8,4.0,30.01,NNW,337,22.2,33.6,53,0.00,,,0.00,Rainwise IP-100,2013-02-18 08:49:00,
2013-02-18 03:54:00,17.8,4.0,30.01,WNW,292,22.2,38.9,54,0.00,,,0.00,Rainwise IP-100,2013-02-18 08:54:00,
2013-02-18 03:59:00,17.9,4.0,30.02,NW,315,23.3,41.7,54,0.00,,,0.00,Rainwise IP-100,2013-02-18 08:59:00,
2013-02-18 04:04:00,17.9,4.0,30.02,WNW,292,31.5,32.9,54,0.00,,,0.00,Rainwise IP-100,2013-02-18 09:04:00,
2013-02-18 04:07:00,17.9,4.0,30.02,NW,315,25.9,33.6,54,0.00,,,0.00,Rainwise IP-100,2013-02-18 09:07:00,
2013-02-18 04:12:00,17.8,4.0,30.02,WNW,292,23.6,31.2,54,0.00,,,0.00,Rainwise IP-100,2013-02-18 09:12:00,
2013-02-18 04:17:00,17.8,4.0,29.99,WNW,292,35.0,40.8,54,0.00,,,0.00,Rainwise IP-100,2013-02-18 09:17:00,
2013-02-18 04:22:00,17.9,4.0,30.04,WNW,292,26.3,37.1,54,0.00,,,0.00,Rainwise IP-100,2013-02-18 09:22:00,
2013-02-18 04:27:00,18.0,4.0,30.00,NW,315,15.6,35.7,54,0.00,,,0.00,Rainwise IP-100,2013-02-18 09:27:00,
2013-02-18 04:33:00,18.0,4.0,30.02,WNW,292,28.0,35.2,54,0.00,,,0.00,Rainwise IP-100,2013-02-18 09:33:00,
2013-02-18 04:38:00,18.0,4.0,30.03,WNW,292,21.5,33.8,54,0.00,,,0.00,Rainwise IP-100,2013-02-18 09:38:00,
2013-02-18 04:43:00,18.0,8.0,30.02,WNW,292,27.7,37.1,55,0.00,,,0.00,Rainwise IP-100,2013-02-18 09:43:00,
2013-02-18 04:48:00,17.9,8.0,30.06,WNW,292,18.0,31.5,55,0.00,,,0.00,Rainwise IP-100,2013-02-18 09:48:00,
2013-02-18 04:53:00,17.9,8.0,30.07,WNW,292,13.1,31.0,55,0.00,,,0.00,Rainwise IP-100,2013-02-18 09:53:00,
2013-02-18 04:58:00,17.7,8.0,30.04,WNW,292,24.2,31.7,55,0.00,,,0.00,Rainwise IP-100,2013-02-18 09:58:00,
2013-02-18 05:03:00,17.6,4.0,30.06,WNW,292,35.4,35.4,54,0.00,,,0.00,Rainwise IP-100,2013-02-18 10:03:00,
2013-02-18 05:08:00,17.7,4.0,30.02,WNW,292,40.1,40.1,54,0.00,,,0.00,Rainwise IP-100,2013-02-18 10:08:00,
2013-02-18 05:14:00,17.7,4.0,30.05,WNW,292,24.9,40.1,54,0.00,,,0.00,Rainwise IP-100,2013-02-18 10:14:00,
2013-02-18 05:19:00,17.8,4.0,30.06,NNW,337,18.9,34.0,54,0.00,,,0.00,Rainwise IP-100,2013-02-18 10:19:00,
2013-02-18 05:24:00,17.7,4.0,30.06,NW,315,22.6,33.1,54,0.00,,,0.00,Rainwise IP-100,2013-02-18 10:24:00,
2013-02-18 05:29:00,17.6,4.0,30.07,NW,315,18.0,32.2,53,0.00,,,0.00,Rainwise IP-100,2013-02-18 10:29:00,
2013-02-18 05:34:00,17.7,4.0,30.07,WNW,292,18.4,35.0,53,0.00,,,0.00,Rainwise IP-100,2013-02-18 10:34:00,
2013-02-18 05:39:00,17.7,4.0,30.08,NW,315,19.4,28.4,53,0.00,,,0.00,Rainwise IP-100,2013-02-18 10:39:00,
2013-02-18 05:44:00,17.6,4.0,30.07,NW,315,18.4,26.3,53,0.00,,,0.00,Rainwise IP-100,2013-02-18 10:44:00,
2013-02-18 05:50:00,17.6,4.0,30.09,WNW,292,26.1,28.2,53,0.00,,,0.00,Rainwise IP-100,2013-02-18 10:50:00,
2013-02-18 05:55:00,17.6,4.0,30.09,WNW,292,32.4,35.4,53,0.00,,,0.00,Rainwise IP-100,2013-02-18 10:55:00,
2013-02-18 06:00:00,17.7,4.0,30.11,NW,315,9.6,33.8,53,0.00,,,0.00,Rainwise IP-100,2013-02-18 11:00:00,
2013-02-18 06:05:00,17.7,4.0,30.11,WNW,292,13.5,24.9,53,0.00,,,0.00,Rainwise IP-100,2013-02-18 11:05:00,
2013-02-18 06:10:00,17.5,4.0,30.11,West,270,14.5,24.0,53,0.00,,,0.00,Rainwise IP-100,2013-02-18 11:10:00,
2013-02-18 06:15:00,17.5,4.0,30.10,West,270,19.8,24.5,53,0.00,,,0.00,Rainwise IP-100,2013-02-18 11:15:00,
2013-02-18 06:20:00,17.5,4.0,30.10,WNW,292,17.0,30.8,53,0.00,,,0.00,Rainwise IP-100,2013-02-18 11:20:00,
2013-02-18 06:25:00,17.5,4.0,30.11,NW,315,16.3,31.0,53,0.00,,,0.00,Rainwise IP-100,2013-02-18 11:25:00,
2013-02-18 06:31:00,17.5,4.0,30.11,NW,315,17.3,30.8,53,0.00,,,0.00,Rainwise IP-100,2013-02-18 11:31:00,
2013-02-18 06:36:00,17.5,4.0,30.12,NW,315,28.0,29.4,53,0.00,,,0.00,Rainwise IP-100,2013-02-18 11:36:00,
2013-02-18 06:41:00,17.5,4.0,30.11,WNW,292,19.8,30.3,54,0.00,,,0.00,Rainwise IP-100,2013-02-18 11:41:00,
2013-02-18 06:46:00,17.5,4.0,30.11,West,270,23.6,25.9,54,0.00,,,0.00,Rainwise IP-100,2013-02-18 11:46:00,
2013-02-18 06:51:00,17.6,4.0,30.11,NW,315,14.5,31.9,54,0.00,,,0.00,Rainwise IP-100,2013-02-18 11:51:00,
2013-02-18 06:56:00,17.6,4.0,30.12,WNW,292,19.8,35.9,54,0.00,,,0.00,Rainwise IP-100,2013-02-18 11:56:00,
2013-02-18 07:01:00,17.5,4.0,30.12,WNW,292,26.6,35.0,54,0.00,,,0.00,Rainwise IP-100,2013-02-18 12:01:00,
2013-02-18 07:07:00,17.6,4.0,30.13,NW,315,19.1,30.8,54,0.00,,,0.00,Rainwise IP-100,2013-02-18 12:07:00,
2013-02-18 07:12:00,17.7,4.0,30.14,WNW,292,12.4,34.3,54,0.00,,,0.00,Rainwise IP-100,2013-02-18 12:12:00,
2013-02-18 07:17:00,17.7,4.0,30.14,WNW,292,23.3,30.1,54,0.00,,,0.00,Rainwise IP-100,2013-02-18 12:17:00,
2013-02-18 07:22:00,17.8,4.0,30.15,WNW,292,14.9,23.6,54,0.00,,,0.00,Rainwise IP-100,2013-02-18 12:22:00,
2013-02-18 07:27:00,17.9,8.0,30.15,WNW,292,20.5,23.1,55,0.00,,,0.00,Rainwise IP-100,2013-02-18 12:27:00,
2013-02-18 07:32:00,18.0,4.0,30.14,WNW,292,19.1,28.0,54,0.00,,,0.00,Rainwise IP-100,2013-02-18 12:32:00,
2013-02-18 07:37:00,18.1,4.0,30.16,WNW,292,9.6,23.6,54,0.00,,,0.00,Rainwise IP-100,2013-02-18 12:37:00,
2013-02-18 07:42:00,18.2,4.0,30.16,WNW,292,13.8,24.2,54,0.00,,,0.00,Rainwise IP-100,2013-02-18 12:42:00,
2013-02-18 07:47:00,18.3,4.0,30.16,WNW,292,13.1,22.9,54,0.00,,,0.00,Rainwise IP-100,2013-02-18 12:47:00,
2013-02-18 07:53:00,18.4,8.0,30.16,WNW,292,19.8,30.1,55,0.00,,,0.00,Rainwise IP-100,2013-02-18 12:53:00,
2013-02-18 07:58:00,18.7,8.0,30.16,WNW,292,15.4,29.1,55,0.00,,,0.00,Rainwise IP-100,2013-02-18 12:58:00,
2013-02-18 08:03:00,18.9,8.0,30.16,NW,315,21.0,28.0,54,0.00,,,0.00,Rainwise IP-100,2013-02-18 13:03:00,
2013-02-18 08:08:00,19.0,8.0,30.16,NW,315,15.2,26.3,54,0.00,,,0.00,Rainwise IP-100,2013-02-18 13:08:00,
2013-02-18 08:13:00,19.1,8.0,30.16,WNW,292,16.6,25.6,54,0.00,,,0.00,Rainwise IP-100,2013-02-18 13:13:00,
2013-02-18 08:18:00,19.2,8.0,30.18,NW,315,23.3,31.9,54,0.00,,,0.00,Rainwise IP-100,2013-02-18 13:18:00,
2013-02-18 08:23:00,19.3,8.0,30.18,WNW,292,18.4,28.2,53,0.00,,,0.00,Rainwise IP-100,2013-02-18 13:23:00,
2013-02-18 08:29:00,19.4,8.0,30.17,WNW,292,25.6,27.7,53,0.00,,,0.00,Rainwise IP-100,2013-02-18 13:29:00,
2013-02-18 08:34:00,19.3,8.0,30.18,NW,315,15.9,26.6,53,0.00,,,0.00,Rainwise IP-100,2013-02-18 13:34:00,
2013-02-18 08:39:00,19.4,8.0,30.18,NW,315,19.1,28.7,53,0.00,,,0.00,Rainwise IP-100,2013-02-18 13:39:00,
2013-02-18 08:44:00,19.5,8.0,30.18,WNW,292,18.2,25.6,53,0.00,,,0.00,Rainwise IP-100,2013-02-18 13:44:00,
2013-02-18 08:49:00,19.7,8.0,30.19,West,270,11.4,26.6,53,0.00,,,0.00,Rainwise IP-100,2013-02-18 13:49:00,
2013-02-18 08:54:00,19.9,8.0,30.19,NW,315,13.8,24.2,53,0.00,,,0.00,Rainwise IP-100,2013-02-18 13:54:00,
2013-02-18 08:59:00,20.2,8.0,30.19,NW,315,19.6,22.6,53,0.00,,,0.00,Rainwise IP-100,2013-02-18 13:59:00,
2013-02-18 09:04:00,20.3,8.0,30.19,NW,315,15.6,31.2,53,0.00,,,0.00,Rainwise IP-100,2013-02-18 14:04:00,
2013-02-18 09:10:00,20.2,8.0,30.18,WNW,292,21.0,33.6,52,0.00,,,0.00,Rainwise IP-100,2013-02-18 14:10:00,
2013-02-18 09:15:00,20.3,8.0,30.18,WNW,292,24.7,31.0,52,0.00,,,0.00,Rainwise IP-100,2013-02-18 14:15:00,
2013-02-18 09:20:00,20.3,8.0,30.18,NW,315,25.2,28.9,52,0.00,,,0.00,Rainwise IP-100,2013-02-18 14:20:00,
2013-02-18 09:25:00,20.6,8.0,30.19,WNW,292,22.6,25.4,52,0.00,,,0.00,Rainwise IP-100,2013-02-18 14:25:00,
2013-02-18 09:30:00,20.8,8.0,30.19,WNW,292,22.9,28.9,51,0.00,,,0.00,Rainwise IP-100,2013-02-18 14:30:00,
2013-02-18 09:35:00,20.8,8.0,30.19,WNW,292,22.2,28.0,51,0.00,,,0.00,Rainwise IP-100,2013-02-18 14:35:00,
2013-02-18 09:40:00,21.1,8.0,30.20,WNW,292,19.4,25.9,51,0.00,,,0.00,Rainwise IP-100,2013-02-18 14:40:00,
2013-02-18 09:45:00,21.1,8.0,30.19,WNW,292,27.0,31.9,51,0.00,,,0.00,Rainwise IP-100,2013-02-18 14:45:00,
2013-02-18 09:51:00,21.1,8.0,30.19,NW,315,23.3,31.2,51,0.00,,,0.00,Rainwise IP-100,2013-02-18 14:51:00,
2013-02-18 09:56:00,21.4,8.0,30.20,NW,315,28.2,28.2,50,0.00,,,0.00,Rainwise IP-100,2013-02-18 14:56:00,
2013-02-18 10:01:00,21.6,8.0,30.19,WNW,292,16.8,30.3,50,0.00,,,0.00,Rainwise IP-100,2013-02-18 15:01:00,
2013-02-18 10:06:00,21.7,8.0,30.20,NW,315,23.3,29.4,49,0.00,,,0.00,Rainwise IP-100,2013-02-18 15:06:00,
2013-02-18 10:11:00,22.0,8.0,30.21,NNW,337,14.9,26.6,49,0.00,,,0.00,Rainwise IP-100,2013-02-18 15:11:00,
2013-02-18 10:16:00,22.3,8.0,30.21,NW,315,19.1,22.4,49,0.00,,,0.00,Rainwise IP-100,2013-02-18 15:16:00,
2013-02-18 10:21:00,22.3,8.0,30.21,West,270,18.2,22.6,48,0.00,,,0.00,Rainwise IP-100,2013-02-18 15:21:00,
2013-02-18 10:26:00,22.5,8.0,30.22,NNW,337,11.4,26.3,48,0.00,,,0.00,Rainwise IP-100,2013-02-18 15:26:00,
2013-02-18 10:32:00,22.9,8.0,30.21,NW,315,19.8,27.0,48,0.00,,,0.00,Rainwise IP-100,2013-02-18 15:32:00,
2013-02-18 10:37:00,22.9,8.0,30.22,WNW,292,16.3,28.7,48,0.00,,,0.00,Rainwise IP-100,2013-02-18 15:37:00,
2013-02-18 10:42:00,23.0,8.0,30.21,WSW,247,18.2,27.5,47,0.00,,,0.00,Rainwise IP-100,2013-02-18 15:42:00,
2013-02-18 10:47:00,23.2,8.0,30.21,WNW,292,19.1,28.4,47,0.00,,,0.00,Rainwise IP-100,2013-02-18 15:47:00,
2013-02-18 10:52:00,23.5,8.0,30.21,NW,315,24.0,28.4,47,0.00,,,0.00,Rainwise IP-100,2013-02-18 15:52:00,
2013-02-18 10:57:00,23.7,8.0,30.22,WNW,292,15.2,27.0,47,0.00,,,0.00,Rainwise IP-100,2013-02-18 15:57:00,
2013-02-18 11:02:00,23.8,8.0,30.21,WNW,292,18.0,24.0,46,0.00,,,0.00,Rainwise IP-100,2013-02-18 16:02:00,
2013-02-18 11:08:00,24.0,8.0,30.21,WNW,292,16.8,26.8,46,0.00,,,0.00,Rainwise IP-100,2013-02-18 16:08:00,
2013-02-18 11:13:00,24.3,8.0,30.21,NW,315,17.7,25.2,46,0.00,,,0.00,Rainwise IP-100,2013-02-18 16:13:00,
2013-02-18 11:18:00,24.5,8.0,30.21,WNW,292,25.6,28.0,45,0.00,,,0.00,Rainwise IP-100,2013-02-18 16:18:00,
2013-02-18 11:23:00,24.7,8.0,30.21,WNW,292,18.4,30.1,45,0.00,,,0.00,Rainwise IP-100,2013-02-18 16:23:00,
2013-02-18 11:28:00,24.9,8.0,30.21,NW,315,17.5,28.0,44,0.00,,,0.00,Rainwise IP-100,2013-02-18 16:28:00,
2013-02-18 11:33:00,25.0,8.0,30.21,NW,315,14.9,26.1,44,0.00,,,0.00,Rainwise IP-100,2013-02-18 16:33:00,
2013-02-18 11:38:00,25.3,8.0,30.22,NNW,337,9.3,21.2,44,0.00,,,0.00,Rainwise IP-100,2013-02-18 16:38:00,
2013-02-18 11:43:00,25.7,8.0,30.21,WNW,292,24.7,27.7,44,0.00,,,0.00,Rainwise IP-100,2013-02-18 16:43:00,
2013-02-18 11:49:00,25.8,8.0,30.19,NW,315,25.6,28.7,43,0.00,,,0.00,Rainwise IP-100,2013-02-18 16:49:00,
2013-02-18 11:54:00,25.9,8.0,30.21,WNW,292,14.9,32.2,43,0.00,,,0.00,Rainwise IP-100,2013-02-18 16:54:00,
2013-02-18 11:59:00,26.2,8.0,30.21,NW,315,8.4,25.6,43,0.00,,,0.00,Rainwise IP-100,2013-02-18 16:59:00,
2013-02-18 12:04:00,26.6,8.0,30.21,WNW,292,12.6,19.1,43,0.00,,,0.00,Rainwise IP-100,2013-02-18 17:04:00,
2013-02-18 12:09:00,26.7,8.0,30.21,WNW,292,16.1,24.5,42,0.00,,,0.00,Rainwise IP-100,2013-02-18 17:09:00,
2013-02-18 12:14:00,26.7,8.0,30.20,West,270,13.3,27.0,42,0.00,,,0.00,Rainwise IP-100,2013-02-18 17:14:00,
2013-02-18 12:19:00,26.9,8.0,30.18,WNW,292,18.0,27.0,41,0.00,,,0.00,Rainwise IP-100,2013-02-18 17:19:00,
2013-02-18 12:25:00,27.1,8.0,30.20,NW,315,17.7,25.2,41,0.00,,,0.00,Rainwise IP-100,2013-02-18 17:25:00,
2013-02-18 12:30:00,27.4,8.0,30.21,WNW,292,13.3,27.5,41,0.00,,,0.00,Rainwise IP-100,2013-02-18 17:30:00,
2013-02-18 12:35:00,27.8,8.0,30.20,NNW,337,21.5,24.0,40,0.00,,,0.00,Rainwise IP-100,2013-02-18 17:35:00,
2013-02-18 12:40:00,28.1,8.0,30.20,NW,315,15.4,25.4,40,0.00,,,0.00,Rainwise IP-100,2013-02-18 17:40:00,
2013-02-18 12:45:00,28.2,8.0,30.20,West,270,13.1,19.8,40,0.00,,,0.00,Rainwise IP-100,2013-02-18 17:45:00,
2013-02-18 12:50:00,28.4,8.0,30.20,NW,315,11.9,18.2,40,0.00,,,0.00,Rainwise IP-100,2013-02-18 17:50:00,
2013-02-18 12:55:00,28.7,8.0,30.19,WNW,292,17.3,24.0,40,0.00,,,0.00,Rainwise IP-100,2013-02-18 17:55:00,
2013-02-18 13:00:00,28.8,8.0,30.19,WNW,292,18.0,27.5,39,0.00,,,0.00,Rainwise IP-100,2013-02-18 18:00:00,
2013-02-18 13:06:00,28.9,8.0,30.19,NNW,337,17.3,23.8,38,0.00,,,0.00,Rainwise IP-100,2013-02-18 18:06:00,
2013-02-18 13:11:00,29.1,8.0,30.19,WNW,292,16.3,23.8,38,0.00,,,0.00,Rainwise IP-100,2013-02-18 18:11:00,
2013-02-18 13:16:00,29.5,11.0,30.20,WNW,292,11.7,18.7,39,0.00,,,0.00,Rainwise IP-100,2013-02-18 18:16:00,
2013-02-18 13:21:00,29.9,11.0,30.20,WNW,292,7.2,17.5,39,0.00,,,0.00,Rainwise IP-100,2013-02-18 18:21:00,
2013-02-18 13:22:00,29.9,11.0,30.20,WNW,292,14.9,17.5,39,0.00,,,0.00,Rainwise IP-100,2013-02-18 18:22:00,
2013-02-18 13:23:00,30.0,11.0,30.19,WSW,247,16.1,20.1,39,0.00,,,0.00,Rainwise IP-100,2013-02-18 18:23:00,
2013-02-18 13:26:00,30.0,11.0,30.19,WNW,292,8.2,20.1,39,0.00,,,0.00,Rainwise IP-100,2013-02-18 18:26:00,
2013-02-18 13:31:00,29.7,8.0,30.19,West,270,15.6,24.0,38,0.00,,,0.00,Rainwise IP-100,2013-02-18 18:31:00,
2013-02-18 13:36:00,29.4,8.0,30.18,NW,315,21.0,21.2,38,0.00,,,0.00,Rainwise IP-100,2013-02-18 18:36:00,
2013-02-18 13:41:00,29.5,8.0,30.18,WNW,292,14.5,22.2,38,0.00,,,0.00,Rainwise IP-100,2013-02-18 18:41:00,
2013-02-18 13:46:00,29.9,8.0,30.18,WSW,247,16.8,18.0,38,0.00,,,0.00,Rainwise IP-100,2013-02-18 18:46:00,
2013-02-18 13:48:00,30.0,8.0,30.19,NNW,337,11.4,18.7,38,0.00,,,0.00,Rainwise IP-100,2013-02-18 18:48:00,
2013-02-18 13:49:00,30.0,8.0,30.19,WNW,292,13.3,18.7,38,0.00,,,0.00,Rainwise IP-100,2013-02-18 18:49:00,
2013-02-18 13:51:00,30.1,8.0,30.18,WNW,292,12.1,23.6,38,0.00,,,0.00,Rainwise IP-100,2013-02-18 18:51:00,
2013-02-18 13:56:00,30.1,8.0,30.18,West,270,7.2,17.5,38,0.00,,,0.00,Rainwise IP-100,2013-02-18 18:56:00,
2013-02-18 14:01:00,30.2,8.0,30.17,NW,315,17.7,21.2,38,0.00,,,0.00,Rainwise IP-100,2013-02-18 19:01:00,
2013-02-18 14:06:00,30.4,8.0,30.17,West,270,18.7,24.9,37,0.00,,,0.00,Rainwise IP-100,2013-02-18 19:06:00,
2013-02-18 14:12:00,30.6,8.0,30.17,WNW,292,25.2,25.4,37,0.00,,,0.00,Rainwise IP-100,2013-02-18 19:12:00,
2013-02-18 14:17:00,30.7,8.0,30.18,WNW,292,22.6,28.4,37,0.00,,,0.00,Rainwise IP-100,2013-02-18 19:17:00,
2013-02-18 14:22:00,30.7,8.0,30.17,WNW,292,18.7,25.2,36,0.00,,,0.00,Rainwise IP-100,2013-02-18 19:22:00,
2013-02-18 14:27:00,30.9,8.0,30.17,West,270,14.9,24.7,36,0.00,,,0.00,Rainwise IP-100,2013-02-18 19:27:00,
2013-02-18 14:32:00,31.2,8.0,30.16,West,270,19.1,22.6,36,0.00,,,0.00,Rainwise IP-100,2013-02-18 19:32:00,
2013-02-18 14:37:00,31.6,8.0,30.17,WSW,247,18.7,26.8,35,0.00,,,0.00,Rainwise IP-100,2013-02-18 19:37:00,
2013-02-18 14:42:00,31.8,8.0,30.16,WNW,292,21.2,26.8,35,0.00,,,0.00,Rainwise IP-100,2013-02-18 19:42:00,
2013-02-18 14:47:00,31.7,8.0,30.17,NW,315,24.7,25.2,35,0.00,,,0.00,Rainwise IP-100,2013-02-18 19:47:00,
2013-02-18 14:53:00,31.8,8.0,30.16,WNW,292,20.3,28.4,35,0.00,,,0.00,Rainwise IP-100,2013-02-18 19:53:00,
2013-02-18 14:58:00,31.9,8.0,30.17,WNW,292,18.9,23.8,34,0.00,,,0.00,Rainwise IP-100,2013-02-18 19:58:00,
2013-02-18 15:03:00,32.0,8.0,30.16,NNW,337,18.0,23.8,34,0.00,,,0.00,Rainwise IP-100,2013-02-18 20:03:00,
2013-02-18 15:08:00,32.3,8.0,30.17,NW,315,21.7,24.5,34,0.00,,,0.00,Rainwise IP-100,2013-02-18 20:08:00,
2013-02-18 15:13:00,32.3,8.0,30.17,NW,315,16.8,29.6,34,0.00,,,0.00,Rainwise IP-100,2013-02-18 20:13:00,
2013-02-18 15:15:00,32.3,8.0,30.16,NW,315,23.8,27.7,34,0.00,,,0.00,Rainwise IP-100,2013-02-18 20:15:00,
2013-02-18 15:20:00,32.4,8.0,30.17,WNW,292,15.4,27.7,34,0.00,,,0.00,Rainwise IP-100,2013-02-18 20:20:00,
2013-02-18 15:25:00,32.7,8.0,30.18,WNW,292,13.1,20.3,34,0.00,,,0.00,Rainwise IP-100,2013-02-18 20:25:00,
2013-02-18 15:30:00,33.0,8.0,30.17,WNW,292,12.6,22.6,34,0.00,,,0.00,Rainwise IP-100,2013-02-18 20:30:00,
2013-02-18 15:35:00,33.0,8.0,30.17,WNW,292,24.5,24.5,33,0.00,,,0.00,Rainwise IP-100,2013-02-18 20:35:00,
2013-02-18 15:41:00,33.1,8.0,30.17,WNW,292,18.9,25.9,33,0.00,,,0.00,Rainwise IP-100,2013-02-18 20:41:00,
2013-02-18 15:43:00,33.1,8.0,30.17,WNW,292,23.6,31.5,33,0.00,,,0.00,Rainwise IP-100,2013-02-18 20:43:00,
2013-02-18 15:48:00,33.1,8.0,30.16,WNW,292,24.7,31.7,33,0.00,,,0.00,Rainwise IP-100,2013-02-18 20:48:00,
2013-02-18 15:53:00,33.0,8.0,30.17,WNW,292,19.4,32.2,32,0.00,,,0.00,Rainwise IP-100,2013-02-18 20:53:00,
2013-02-18 15:58:00,33.0,8.0,30.16,WNW,292,18.9,28.0,33,0.00,,,0.00,Rainwise IP-100,2013-02-18 20:58:00,
2013-02-18 16:03:00,33.1,8.0,30.17,WNW,292,14.7,24.2,33,0.00,,,0.00,Rainwise IP-100,2013-02-18 21:03:00,
2013-02-18 16:08:00,33.3,8.0,30.16,NW,315,19.4,24.2,33,0.00,,,0.00,Rainwise IP-100,2013-02-18 21:08:00,
2013-02-18 16:14:00,33.4,8.0,30.17,WNW,292,17.7,26.1,32,0.00,,,0.00,Rainwise IP-100,2013-02-18 21:14:00,
2013-02-18 16:19:00,33.4,8.0,30.17,WNW,292,17.3,21.5,33,0.00,,,0.00,Rainwise IP-100,2013-02-18 21:19:00,
2013-02-18 16:24:00,33.5,11.0,30.18,NNW,337,10.5,21.9,33,0.00,,,0.00,Rainwise IP-100,2013-02-18 21:24:00,
2013-02-18 16:29:00,33.6,11.0,30.18,WNW,292,18.9,21.9,33,0.00,,,0.00,Rainwise IP-100,2013-02-18 21:29:00,
2013-02-18 16:34:00,33.6,8.0,30.18,WNW,292,18.9,23.8,32,0.00,,,0.00,Rainwise IP-100,2013-02-18 21:34:00,
2013-02-18 16:39:00,33.5,11.0,30.18,WNW,292,14.0,24.9,33,0.00,,,0.00,Rainwise IP-100,2013-02-18 21:39:00,
2013-02-18 16:44:00,33.5,11.0,30.19,West,270,14.2,20.3,33,0.00,,,0.00,Rainwise IP-100,2013-02-18 21:44:00,
2013-02-18 16:49:00,33.6,11.0,30.18,WNW,292,14.5,20.3,33,0.00,,,0.00,Rainwise IP-100,2013-02-18 21:49:00,
2013-02-18 16:55:00,33.6,11.0,30.18,WNW,292,18.2,18.2,33,0.00,,,0.00,Rainwise IP-100,2013-02-18 21:55:00,
2013-02-18 17:00:00,33.7,11.0,30.19,WNW,292,14.0,18.0,33,0.00,,,0.00,Rainwise IP-100,2013-02-18 22:00:00,
2013-02-18 17:05:00,33.7,11.0,30.19,NW,315,11.2,14.9,33,0.00,,,0.00,Rainwise IP-100,2013-02-18 22:05:00,
2013-02-18 17:10:00,33.6,11.0,30.19,WNW,292,10.7,15.6,33,0.00,,,0.00,Rainwise IP-100,2013-02-18 22:10:00,
2013-02-18 17:15:00,33.6,11.0,30.19,NW,315,6.8,13.5,33,0.00,,,0.00,Rainwise IP-100,2013-02-18 22:15:00,
2013-02-18 17:20:00,33.5,11.0,30.18,NW,315,13.1,15.6,33,0.00,,,0.00,Rainwise IP-100,2013-02-18 22:20:00,
2013-02-18 17:25:00,33.4,8.0,30.19,NW,315,4.2,13.1,33,0.00,,,0.00,Rainwise IP-100,2013-02-18 22:25:00,
2013-02-18 17:31:00,33.3,8.0,30.19,NW,315,7.0,13.3,34,0.00,,,0.00,Rainwise IP-100,2013-02-18 22:31:00,
2013-02-18 17:36:00,33.2,8.0,30.19,WNW,292,6.3,11.0,34,0.00,,,0.00,Rainwise IP-100,2013-02-18 22:36:00,
2013-02-18 17:41:00,33.1,8.0,30.19,NW,315,7.7,10.7,34,0.00,,,0.00,Rainwise IP-100,2013-02-18 22:41:00,
2013-02-18 17:46:00,33.0,8.0,30.19,WNW,292,6.3,8.9,34,0.00,,,0.00,Rainwise IP-100,2013-02-18 22:46:00,
2013-02-18 17:51:00,32.9,8.0,30.19,WNW,292,3.7,8.2,34,0.00,,,0.00,Rainwise IP-100,2013-02-18 22:51:00,
2013-02-18 17:56:00,32.8,8.0,30.20,WNW,292,2.3,5.1,34,0.00,,,0.00,Rainwise IP-100,2013-02-18 22:56:00,
2013-02-18 18:01:00,32.6,8.0,30.20,WNW,292,0.0,3.0,34,0.00,,,0.00,Rainwise IP-100,2013-02-18 23:01:00,
2013-02-18 18:06:00,32.3,8.0,30.20,WNW,292,0.0,1.6,35,0.00,,,0.00,Rainwise IP-100,2013-02-18 23:06:00,
2013-02-18 18:11:00,32.1,8.0,30.20,West,270,2.6,2.6,35,0.00,,,0.00,Rainwise IP-100,2013-02-18 23:11:00,
2013-02-18 18:17:00,32.1,8.0,30.20,West,270,2.3,3.3,34,0.00,,,0.00,Rainwise IP-100,2013-02-18 23:17:00,
2013-02-18 18:22:00,32.2,8.0,30.21,West,270,2.6,3.5,34,0.00,,,0.00,Rainwise IP-100,2013-02-18 23:22:00,
2013-02-18 18:27:00,32.0,8.0,30.20,West,270,2.1,3.5,35,0.00,,,0.00,Rainwise IP-100,2013-02-18 23:27:00,
2013-02-18 18:32:00,31.5,11.0,30.21,WNW,292,3.3,4.4,40,0.00,,,0.00,Rainwise IP-100,2013-02-18 23:32:00,
2013-02-18 18:37:00,31.0,11.0,30.21,WNW,292,1.9,3.5,44,0.00,,,0.00,Rainwise IP-100,2013-02-18 23:37:00,
2013-02-18 18:42:00,30.7,14.0,30.21,WNW,292,1.2,2.6,46,0.00,,,0.00,Rainwise IP-100,2013-02-18 23:42:00,
2013-02-18 18:47:00,30.5,11.0,30.21,SSW,202,2.1,2.8,43,0.00,,,0.00,Rainwise IP-100,2013-02-18 23:47:00,
2013-02-18 18:52:00,30.2,11.0,30.21,SSW,202,3.3,4.0,40,0.00,,,0.00,Rainwise IP-100,2013-02-18 23:52:00,
2013-02-18 18:58:00,29.9,8.0,30.20,SSW,202,2.3,3.7,38,0.00,,,0.00,Rainwise IP-100,2013-02-18 23:58:00,
2013-02-18 19:03:00,30.1,8.0,30.21,SSW,202,0.0,3.0,38,0.00,,,0.00,Rainwise IP-100,2013-02-19 00:03:00,
2013-02-18 19:08:00,30.6,11.0,30.21,SSW,202,0.0,0.0,40,0.00,,,0.00,Rainwise IP-100,2013-02-19 00:08:00,
2013-02-18 19:13:00,30.6,11.0,30.21,SSW,202,0.0,0.0,41,0.00,,,0.00,Rainwise IP-100,2013-02-19 00:13:00,
2013-02-18 19:18:00,30.3,11.0,30.21,SSW,202,1.2,2.3,40,0.00,,,0.00,Rainwise IP-100,2013-02-19 00:18:00,
2013-02-18 19:23:00,30.6,11.0,30.21,SSW,202,0.0,1.9,40,0.00,,,0.00,Rainwise IP-100,2013-02-19 00:23:00,
2013-02-18 19:28:00,30.8,11.0,30.21,SSW,202,2.1,2.6,40,0.00,,,0.00,Rainwise IP-100,2013-02-19 00:28:00,
2013-02-18 19:34:00,30.4,11.0,30.21,SSW,202,1.6,2.6,39,0.00,,,0.00,Rainwise IP-100,2013-02-19 00:34:00,
2013-02-18 19:39:00,30.6,11.0,30.21,SSW,202,1.2,2.8,39,0.00,,,0.00,Rainwise IP-100,2013-02-19 00:39:00,
2013-02-18 19:44:00,30.8,11.0,30.22,SW,225,3.5,4.4,39,0.00,,,0.00,Rainwise IP-100,2013-02-19 00:44:00,
2013-02-18 19:49:00,30.6,11.0,30.21,SW,225,3.7,6.1,39,0.00,,,0.00,Rainwise IP-100,2013-02-19 00:49:00,
2013-02-18 19:52:00,30.5,11.0,30.21,SW,225,3.7,6.1,39,0.00,,,0.00,Rainwise IP-100,2013-02-19 00:52:00,
2013-02-18 19:54:00,30.6,11.0,30.22,SW,225,4.2,6.1,39,0.00,,,0.00,Rainwise IP-100,2013-02-19 00:54:00,
2013-02-18 19:55:00,30.7,11.0,30.21,SW,225,3.5,5.1,39,0.00,,,0.00,Rainwise IP-100,2013-02-19 00:55:00,
2013-02-18 20:00:00,30.9,11.0,30.21,SW,225,2.3,4.7,39,0.00,,,0.00,Rainwise IP-100,2013-02-19 01:00:00,
2013-02-18 20:05:00,30.7,11.0,30.21,SW,225,2.6,3.3,39,0.00,,,0.00,Rainwise IP-100,2013-02-19 01:05:00,
2013-02-18 20:10:00,30.7,11.0,30.21,SW,225,0.0,2.6,40,0.00,,,0.00,Rainwise IP-100,2013-02-19 01:10:00,
2013-02-18 20:15:00,31.0,11.0,30.21,WSW,247,1.4,4.4,40,0.00,,,0.00,Rainwise IP-100,2013-02-19 01:15:00,
2013-02-18 20:20:00,31.0,11.0,30.21,WSW,247,3.5,4.0,40,0.00,,,0.00,Rainwise IP-100,2013-02-19 01:20:00,
2013-02-18 20:25:00,30.9,11.0,30.21,WSW,247,2.1,4.9,40,0.00,,,0.00,Rainwise IP-100,2013-02-19 01:25:00,
2013-02-18 20:30:00,30.9,8.0,30.21,WSW,247,3.5,4.2,38,0.00,,,0.00,Rainwise IP-100,2013-02-19 01:30:00,
2013-02-18 20:35:00,31.2,8.0,30.21,WSW,247,2.6,4.0,37,0.00,,,0.00,Rainwise IP-100,2013-02-19 01:35:00,
2013-02-18 20:40:00,31.3,8.0,30.21,WSW,247,2.3,4.9,37,0.00,,,0.00,Rainwise IP-100,2013-02-19 01:40:00,
2013-02-18 20:45:00,31.3,8.0,30.21,West,270,3.3,7.0,38,0.00,,,0.00,Rainwise IP-100,2013-02-19 01:45:00,
2013-02-18 20:46:00,31.4,8.0,30.21,West,270,4.0,7.5,38,0.00,,,0.00,Rainwise IP-100,2013-02-19 01:46:00,
2013-02-18 20:51:00,31.4,8.0,30.22,WSW,247,4.4,6.8,38,0.00,,,0.00,Rainwise IP-100,2013-02-19 01:51:00,
2013-02-18 20:56:00,31.3,11.0,30.22,West,270,2.3,6.1,39,0.00,,,0.00,Rainwise IP-100,2013-02-19 01:56:00,
2013-02-18 21:01:00,31.3,11.0,30.22,West,270,1.4,6.1,39,0.00,,,0.00,Rainwise IP-100,2013-02-19 02:01:00,
2013-02-18 21:06:00,31.3,11.0,30.22,West,270,1.9,4.4,40,0.00,,,0.00,Rainwise IP-100,2013-02-19 02:06:00,
2013-02-18 21:11:00,31.3,11.0,30.22,WNW,292,2.3,4.9,40,0.00,,,0.00,Rainwise IP-100,2013-02-19 02:11:00,
2013-02-18 21:16:00,31.1,11.0,30.21,West,270,4.2,4.2,41,0.00,,,0.00,Rainwise IP-100,2013-02-19 02:16:00,
2013-02-18 21:22:00,31.0,11.0,30.22,WSW,247,1.9,4.2,41,0.00,,,0.00,Rainwise IP-100,2013-02-19 02:22:00,
2013-02-18 21:27:00,31.0,11.0,30.22,WSW,247,0.0,3.0,42,0.00,,,0.00,Rainwise IP-100,2013-02-19 02:27:00,
2013-02-18 21:32:00,30.9,11.0,30.21,WSW,247,0.0,4.4,42,0.00,,,0.00,Rainwise IP-100,2013-02-19 02:32:00,
2013-02-18 21:37:00,31.0,11.0,30.21,WSW,247,1.2,2.3,42,0.00,,,0.00,Rainwise IP-100,2013-02-19 02:37:00,
2013-02-18 21:40:00,31.0,11.0,30.21,WSW,247,1.9,3.3,42,0.00,,,0.00,Rainwise IP-100,2013-02-19 02:40:00,
2013-02-18 21:45:00,31.0,11.0,30.22,WSW,247,2.3,4.0,42,0.00,,,0.00,Rainwise IP-100,2013-02-19 02:45:00,
2013-02-18 21:51:00,30.9,11.0,30.21,WNW,292,3.7,4.0,42,0.00,,,0.00,Rainwise IP-100,2013-02-19 02:51:00,
2013-02-18 21:56:00,30.8,11.0,30.21,WNW,292,2.1,3.5,44,0.00,,,0.00,Rainwise IP-100,2013-02-19 02:56:00,
2013-02-18 22:01:00,30.7,11.0,30.21,SW,225,0.0,3.0,44,0.00,,,0.00,Rainwise IP-100,2013-02-19 03:01:00,
2013-02-18 22:06:00,30.7,11.0,30.21,SW,225,0.0,2.6,44,0.00,,,0.00,Rainwise IP-100,2013-02-19 03:06:00,
2013-02-18 22:08:00,30.6,11.0,30.21,WSW,247,3.3,3.5,44,0.00,,,0.00,Rainwise IP-100,2013-02-19 03:08:00,
2013-02-18 22:13:00,30.7,11.0,30.21,WSW,247,1.6,3.5,44,0.00,,,0.00,Rainwise IP-100,2013-02-19 03:13:00,
2013-02-18 22:18:00,30.8,14.0,30.22,WSW,247,1.6,3.0,45,0.00,,,0.00,Rainwise IP-100,2013-02-19 03:18:00,
2013-02-18 22:23:00,30.7,14.0,30.22,SW,225,0.0,4.0,45,0.00,,,0.00,Rainwise IP-100,2013-02-19 03:23:00,
2013-02-18 22:28:00,30.8,14.0,30.21,WSW,247,1.2,3.0,45,0.00,,,0.00,Rainwise IP-100,2013-02-19 03:28:00,
2013-02-18 22:33:00,31.0,11.0,30.21,WSW,247,1.2,5.6,44,0.00,,,0.00,Rainwise IP-100,2013-02-19 03:33:00,
2013-02-18 22:38:00,31.1,11.0,30.22,WSW,247,1.9,3.5,44,0.00,,,0.00,Rainwise IP-100,2013-02-19 03:38:00,
2013-02-18 22:43:00,31.2,11.0,30.22,WSW,247,1.2,4.7,44,0.00,,,0.00,Rainwise IP-100,2013-02-19 03:43:00,
2013-02-18 22:49:00,31.2,14.0,30.22,WSW,247,2.3,2.6,45,0.00,,,0.00,Rainwise IP-100,2013-02-19 03:49:00,
2013-02-18 22:54:00,31.2,14.0,30.22,West,270,2.1,5.1,45,0.00,,,0.00,Rainwise IP-100,2013-02-19 03:54:00,
2013-02-18 22:59:00,31.2,14.0,30.22,WSW,247,3.0,5.8,45,0.00,,,0.00,Rainwise IP-100,2013-02-19 03:59:00,
2013-02-18 23:03:00,31.4,14.0,30.22,West,270,3.5,5.1,45,0.00,,,0.00,Rainwise IP-100,2013-02-19 04:03:00,
2013-02-18 23:08:00,31.6,14.0,30.22,West,270,2.1,6.5,45,0.00,,,0.00,Rainwise IP-100,2013-02-19 04:08:00,
2013-02-18 23:13:00,31.6,14.0,30.22,WSW,247,1.6,4.7,45,0.00,,,0.00,Rainwise IP-100,2013-02-19 04:13:00,
2013-02-18 23:18:00,31.5,14.0,30.22,WSW,247,1.6,4.2,46,0.00,,,0.00,Rainwise IP-100,2013-02-19 04:18:00,
2013-02-18 23:23:00,31.5,14.0,30.22,WSW,247,3.7,4.2,46,0.00,,,0.00,Rainwise IP-100,2013-02-19 04:23:00,
2013-02-18 23:28:00,31.5,14.0,30.23,WSW,247,2.6,4.9,45,0.00,,,0.00,Rainwise IP-100,2013-02-19 04:28:00,
2013-02-18 23:34:00,31.7,14.0,30.23,West,270,1.9,4.4,44,0.00,,,0.00,Rainwise IP-100,2013-02-19 04:34:00,
2013-02-18 23:39:00,31.5,14.0,30.22,West,270,3.5,4.0,45,0.00,,,0.00,Rainwise IP-100,2013-02-19 04:39:00,
2013-02-18 23:44:00,31.4,14.0,30.22,West,270,2.8,4.2,46,0.00,,,0.00,Rainwise IP-100,2013-02-19 04:44:00,
2013-02-18 23:47:00,31.4,14.0,30.22,West,270,2.3,4.2,46,0.00,,,0.00,Rainwise IP-100,2013-02-19 04:47:00,
2013-02-18 23:52:00,31.3,14.0,30.22,WNW,292,2.8,4.4,48,0.00,,,0.00,Rainwise IP-100,2013-02-19 04:52:00,
2013-02-18 23:57:00,31.5,14.0,30.22,WNW,292,1.4,3.5,47,0.00,,,0.00,Rainwise IP-100,2013-02-19 04:57:00,
2013-02-18 23:58:00,31.5,14.0,30.22,WNW,292,1.4,3.0,47,0.00,,,0.00,Rainwise IP-100,2013-02-19 04:58:00,